Temperature
15 15 16 15 15 14 13 13 14 15 16 18 18 17 19 19 17 15 13 12 10 7 5 3 2 1 1 1 1 0 -0 -1 -2 -2 -3 -4 -5 -5 -6 -7 -7 -8 -9 -9
14 15 14 13 13 14 13 13 14 15 15 17 18 19 18 17 16 15 14 12 10 8 5 4 2 1 1 1 1 1 -0 -1 -2 -2 -3 -4 -5 -5 -6 -6 -7 -8 -9 -9
11 14 13 12 13 13 13 13 13 13 14 15 16 16 17 17 16 15 14 13 11 9 7 5 3 3 2 2 1 1 -0 -1 -2 -2 -3 -4 -4 -5 -5 -6 -7 -8 -8 -9
11 13 12 15 16 15 14 14 13 13 14 14 15 16 16 16 16 16 15 14 12 10 8 5 4 3 2 1 1 1 -0 -1 -2 -2 -3 -4 -4 -5 -5 -6 -6 -8 -8 -9
11 10 12 15 16 14 14 13 14 14 14 15 16 14 16 18 17 17 15 14 13 11 9 6 4 3 2 2 1 1 -0 -1 -2 -2 -3 -3 -4 -4 -5 -5 -6 -7 -8 -9
9 9 10 14 14 13 14 12 15 14 13 15 14 11 14 18 17 16 15 14 12 11 8 6 5 3 2 2 1 1 0 -1 -2 -2 -3 -3 -4 -4 -5 -5 -6 -7 -7 -9
8 8 11 14 11 12 13 14 18 18 17 17 13 14 17 17 16 15 14 13 12 10 9 7 6 4 3 2 2 1 0 -1 -2 -2 -3 -3 -4 -4 -5 -5 -5 -6 -7 -8
8 8 10 12 11 12 14 17 18 18 18 18 17 17 17 16 15 15 14 12 11 9 8 7 5 4 3 3 2 1 -0 -1 -1 -2 -3 -3 -4 -4 -4 -5 -5 -5 -6 -7
11 12 15 14 14 16 17 16 17 17 17 17 16 16 17 16 16 15 14 12 10 8 7 6 5 4 4 3 2 1 -0 -1 -2 -2 -3 -3 -3 -4 -4 -5 -5 -5 -6 -7
12 12 14 15 16 16 16 17 17 17 17 16 16 16 16 16 16 15 14 12 10 8 6 6 5 5 4 3 2 1 0 -1 -2 -2 -3 -3 -3 -4 -4 -4 -5 -5 -6 -7
10 12 14 16 16 17 18 18 18 18 17 17 16 16 16 16 15 15 14 12 10 8 7 6 5 5 4 2 2 1 -0 -1 -2 -2 -3 -3 -3 -4 -4 -5 -5 -5 -6 -7
13 14 13 15 16 16 16 17 17 16 16 16 15 15 15 14 14 13 13 11 10 9 7 6 5 4 4 3 2 1 0 -1 -1 -2 -3 -3 -3 -4 -4 -4 -5 -6 -6 -7
14 15 15 15 15 15 15 15 15 15 15 15 14 14 13 13 13 12 11 10 10 9 7 5 4 4 4 3 2 1 0 -0 -1 -2 -2 -3 -3 -3 -4 -4 -5 -5 -6 -7
13 13 13 14 14 14 14 14 14 14 14 13 13 12 12 12 11 11 11 10 9 8 6 4 3 3 3 3 2 1 0 -0 -1 -2 -2 -3 -3 -3 -4 -4 -5 -5 -6 -7
12 12 13 13 13 13 13 13 13 12 12 12 11 11 11 11 10 10 10 9 8 7 5 4 2 2 3 3 2 1 0 -0 -1 -2 -2 -3 -3 -3 -4 -4 -5 -5 -6 -6
11 11 12 12 12 12 11 11 11 10 10 10 10 10 9 9 9 9 9 9 8 7 6 5 3 2 2 3 2 1 0 -0 -1 -2 -2 -3 -3 -3 -4 -4 -5 -5 -6 -6
10 10 10 10 10 9 9 9 8 8 8 8 8 8 8 8 8 9 8 7 7 6 5 4 3 1 1 2 2 2 1 -0 -1 -2 -2 -3 -3 -3 -4 -4 -5 -5 -6 -6
9 8 8 8 7 7 7 7 7 7 7 7 7 7 7 8 8 8 7 6 5 5 4 3 1 0 -0 1 1 1 1 0 -1 -1 -2 -2 -3 -3 -4 -4 -5 -5 -6 -6
7 7 7 7 6 6 6 6 6 6 6 6 6 7 7 7 8 7 6 5 5 4 4 2 0 -1 -1 -1 0 1 1 0 -1 -1 -2 -2 -3 -3 -4 -4 -5 -5 -6 -6
6 6 5 5 5 5 5 5 5 5 5 5 6 6 7 7 7 7 6 6 6 5 3 1 -0 -2 -2 -2 -1 -0 0 0 -0 -1 -2 -2 -3 -3 -4 -4 -5 -5 -6 -6
5 5 5 4 4 4 4 4 3 3 4 4 4 5 5 6 6 6 6 6 6 4 2 -0 -1 -2 -3 -3 -3 -1 -0 0 -0 -1 -1 -2 -2 -3 -3 -4 -4 -5 -6 -6
4 4 3 3 3 3 3 2 2 2 2 3 3 4 4 4 5 5 6 5 5 2 1 -1 -2 -3 -4 -4 -5 -3 -1 -0 -0 -1 -1 -2 -2 -3 -3 -4 -4 -5 -5 -6
3 3 3 2 2 1 1 1 1 1 1 2 2 3 3 3 3 3 4 5 3 1 -0 -2 -3 -4 -5 -6 -6 -4 -2 -1 -0 -0 -1 -1 -2 -2 -3 -3 -4 -5 -5 -6
2 2 1 1 1 1 1 1 1 0 1 1 1 2 2 2 3 3 3 2 1 0 -1 -3 -4 -5 -6 -7 -6 -5 -3 -1 -0 -0 -1 -1 -2 -2 -3 -3 -4 -5 -5 -6
1 1 0 0 -0 -0 -0 -0 -0 -0 0 1 1 1 2 2 2 2 2 2 1 -1 -3 -4 -5 -6 -7 -7 -7 -6 -3 -1 -0 -0 -0 -1 -2 -2 -3 -3 -4 -4 -5 -6
-0 -0 -1 -1 -1 -1 -1 -1 -1 -1 -0 -0 0 1 1 1 1 1 1 1 -0 -2 -3 -4 -5 -6 -7 -7 -7 -7 -4 -2 -1 -0 -1 -1 -2 -2 -2 -3 -4 -4 -5 -5
-1 -1 -1 -1 -1 -1 -1 -1 -1 -1 -1 -1 -0 0 0 1 1 1 1 0 -1 -2 -4 -5 -6 -6 -7 -7 -8 -7 -5 -3 -1 -0 -1 -1 -2 -2 -2 -3 -3 -4 -5 -5
Wind_Speed
11 11 8 10 11 12 15 14 12 13 16 19 10 8 7 4 7 9 10 12 14 14 14 14 13 13 12 11 10 9 8 7 7 4 3 4 6 7 8 7 9 7 9 9
7 10 8 10 14 16 18 18 22 22 23 21 12 10 8 5 5 9 10 13 14 15 15 16 16 14 12 11 10 9 9 8 6 5 5 6 7 8 8 8 8 8 9 9
6 2 4 10 15 17 10 12 12 20 19 12 10 9 7 7 8 11 12 12 15 17 16 16 16 14 14 12 10 10 9 8 7 6 6 6 8 8 8 8 8 9 8 9
5 4 11 11 4 7 13 16 16 15 15 11 10 7 7 8 11 12 11 12 14 15 15 13 14 13 12 11 12 11 9 9 8 7 7 7 7 8 9 8 8 8 9 10
3 5 10 12 9 5 7 10 12 19 21 18 11 7 9 12 12 13 11 11 12 14 13 14 15 15 14 13 12 11 10 10 9 8 7 7 8 9 9 8 8 8 8 9
5 6 9 11 2 3 2 9 12 13 16 14 4 3 8 6 6 9 8 8 10 12 13 15 15 16 16 15 14 14 13 11 9 9 8 8 9 9 7 7 7 7 8 8
8 9 12 10 6 7 4 9 5 10 12 10 10 11 8 5 6 8 8 8 10 13 14 15 16 17 17 16 16 14 11 10 9 9 9 8 8 6 6 7 7 7 7 8
8 9 13 8 9 11 12 5 5 7 9 10 11 12 10 9 10 10 9 10 11 13 13 13 17 18 17 17 14 12 12 11 10 9 8 7 7 7 7 6 6 6 6 8
14 14 7 11 13 10 5 7 8 7 9 9 11 12 13 11 11 11 12 11 11 12 12 14 17 18 19 16 14 14 13 11 9 9 8 7 7 7 5 5 4 4 5 7
9 12 10 10 11 12 13 16 16 14 14 12 14 15 15 13 11 11 12 13 12 13 15 16 18 18 16 14 15 15 14 11 9 9 8 7 6 5 4 4 4 4 5 6
10 9 9 12 14 18 19 19 18 17 16 16 15 16 16 14 13 12 12 12 13 16 18 19 18 18 15 16 17 16 14 12 10 9 7 6 6 5 5 5 5 5 4 4
18 12 10 12 9 11 14 16 17 17 17 14 13 16 16 14 12 10 11 12 14 18 18 18 18 18 17 17 18 17 14 13 10 8 7 6 5 4 7 7 8 8 7 7
22 19 18 20 18 16 16 16 16 16 17 17 13 12 13 13 11 9 10 14 18 19 17 16 18 19 18 18 19 18 15 13 10 10 9 8 6 5 4 4 5 6 7 7
19 20 23 21 20 19 18 18 17 16 14 13 12 12 11 12 11 11 13 15 16 15 16 16 18 20 19 18 19 18 15 16 13 10 9 8 7 6 4 4 3 3 4 5
20 20 21 20 18 16 15 14 15 15 14 14 12 12 12 13 14 14 13 12 12 14 17 18 20 20 19 20 20 18 15 12 11 9 9 8 7 6 5 5 4 3 2 2
16 16 16 17 16 15 14 13 13 13 12 12 12 12 13 13 14 13 11 10 13 18 19 19 20 19 20 21 20 16 14 19 15 11 9 8 7 6 6 5 4 3 2 2
13 11 11 10 10 10 10 11 11 12 12 13 14 14 13 12 11 12 11 11 14 15 16 18 17 17 21 22 20 16 14 16 20 13 10 9 8 7 6 5 4 4 3 3
6 7 8 9 9 10 11 12 12 13 13 13 13 12 12 12 13 14 11 9 10 13 14 14 14 17 20 21 18 15 15 14 13 12 10 9 9 7 7 6 6 5 3 3
10 10 10 10 9 8 9 9 11 11 12 12 12 13 13 13 12 12 9 8 12 16 12 14 23 21 20 23 22 14 16 16 14 12 10 13 11 8 7 7 6 5 4 3
8 8 9 10 9 9 10 10 11 11 12 12 13 13 14 13 12 11 9 11 13 10 9 15 19 17 19 22 25 15 17 17 16 14 12 11 10 10 9 8 7 6 5 4
9 10 11 12 13 13 13 13 13 14 13 13 13 14 15 15 12 10 9 12 10 9 11 20 17 15 18 20 26 16 17 17 16 15 14 13 12 11 10 9 8 7 6 5
9 11 13 13 14 15 14 13 14 15 15 14 13 13 13 14 12 10 11 12 8 12 12 12 12 19 24 25 18 17 17 17 16 14 14 13 12 12 11 10 9 8 7 6
11 12 14 15 17 18 16 14 14 15 15 14 14 14 14 13 10 10 12 7 6 13 12 10 18 28 32 23 17 17 18 18 17 16 15 14 13 12 11 11 10 9 7 7
14 14 14 15 15 16 18 17 14 13 14 14 13 13 12 11 10 9 9 10 11 13 10 15 25 30 32 18 16 17 17 17 16 15 14 13 12 11 11 11 10 9 9 9
13 14 14 15 15 15 16 16 15 14 14 12 12 11 9 8 9 9 7 8 12 13 9 16 26 30 23 15 17 17 17 16 16 16 15 14 13 13 12 11 11 10 9 8
14 14 14 14 15 15 14 13 13 12 10 11 11 9 8 7 8 9 8 8 10 13 10 9 14 21 17 16 16 16 15 17 18 16 15 15 14 14 12 12 13 11 10 9
14 13 12 13 12 11 11 12 13 13 11 12 13 11 8 7 7 8 9 8 8 8 8 9 11 13 14 15 15 15 14 14 14 15 15 14 14 13 13 14 12 11 10 9
Wind_Direction
268 281 256 239 240 210 214 224 234 247 252 262 256 262 275 246 187 184 181 185 189 189 186 182 182 183 182 179 173 175 182 198 217 233 269 289 287 285 283 283 290 285 289 292
272 258 253 261 251 236 229 233 243 257 269 270 283 281 275 261 211 209 207 200 197 193 189 187 185 183 180 177 172 170 182 196 205 220 244 260 270 274 277 280 283 285 285 289
265 227 341 268 242 226 219 217 214 239 249 278 279 269 260 256 239 230 222 207 199 197 196 191 185 180 180 176 166 171 183 192 199 212 237 254 271 279 280 283 282 282 282 285
269 292 251 246 250 229 223 239 225 241 263 280 276 300 288 259 245 243 229 210 200 195 192 183 175 172 170 166 168 175 184 193 199 208 229 247 262 271 275 275 275 276 279 283
235 251 270 279 261 212 222 270 233 234 252 262 276 318 288 256 231 229 224 208 195 187 180 174 172 169 167 170 172 179 190 196 197 202 219 238 253 262 267 272 278 279 280 284
208 223 248 255 169 83 127 278 251 212 232 249 212 279 270 245 210 218 212 189 175 169 169 173 172 167 171 177 181 191 194 194 192 198 212 229 243 256 266 276 281 287 292 295
221 232 255 262 141 124 185 250 242 198 215 219 199 224 241 205 212 212 205 186 169 169 177 179 170 170 180 184 193 192 182 182 190 199 212 227 243 258 274 282 289 296 304 307
195 215 249 210 154 191 222 266 263 241 228 226 231 249 254 235 225 213 205 190 177 179 182 175 173 177 186 192 188 174 173 179 189 200 215 225 235 255 265 279 295 306 314 311
201 221 247 176 205 230 271 275 266 262 262 253 256 262 263 255 237 220 208 198 188 184 182 181 181 184 191 189 172 169 172 181 189 201 212 217 226 243 259 273 282 299 307 311
242 247 253 237 238 254 259 259 262 259 260 259 258 263 266 263 248 228 213 201 190 186 192 193 190 192 192 177 169 170 176 183 190 199 208 214 221 225 232 250 267 284 297 309
257 264 280 263 244 248 257 261 264 264 259 255 256 262 262 263 254 234 216 200 193 199 203 200 192 192 187 175 171 174 178 184 190 196 199 209 218 217 223 221 231 253 255 278
262 260 256 265 259 253 257 263 265 268 273 267 252 258 263 262 256 235 216 201 202 207 208 201 192 191 187 177 174 175 181 186 188 191 197 202 208 234 259 249 258 271 276 286
268 274 272 275 275 271 268 271 272 272 276 283 280 265 263 264 258 236 215 206 210 211 209 200 193 193 188 180 177 180 183 182 184 188 192 196 198 199 229 271 268 269 268 287
275 280 279 277 276 276 274 275 279 283 287 286 285 279 266 262 258 240 226 218 212 207 205 200 196 196 189 182 180 183 181 183 183 186 188 189 190 190 193 207 245 276 284 294
268 269 274 279 280 282 284 287 291 292 295 294 288 281 272 265 259 250 238 217 202 202 205 203 201 196 185 183 184 183 181 183 182 179 183 185 184 183 190 201 214 237 259 295
281 283 285 287 290 295 302 305 304 305 307 306 304 296 285 273 265 258 241 206 201 211 208 205 205 193 182 183 184 183 184 185 180 179 182 183 183 186 191 195 203 219 232 220
287 292 293 302 318 330 335 333 328 324 321 315 308 303 297 289 278 266 249 222 216 219 211 206 201 185 182 183 183 182 179 184 183 183 184 185 186 188 187 185 191 203 218 224
1 10 11 8 4 353 343 336 327 319 309 301 300 301 298 291 280 273 261 236 225 227 217 203 190 183 183 184 183 179 175 177 179 180 182 184 186 186 183 183 188 199 214 230
22 11 360 351 341 327 316 310 305 302 301 303 305 302 295 286 279 275 265 234 225 232 221 196 195 188 185 186 183 179 174 174 177 178 179 188 189 186 184 184 187 192 193 195
356 344 333 324 319 313 306 302 301 301 301 304 303 301 297 292 286 278 262 245 238 231 198 192 195 190 185 186 184 181 177 175 175 176 178 183 185 186 186 186 185 187 188 188
332 325 321 317 312 308 304 302 303 301 299 298 295 292 290 289 284 274 263 265 253 211 193 199 196 190 186 187 186 184 180 176 175 175 177 182 185 186 186 185 186 187 186 183
311 310 307 306 303 301 299 297 294 293 291 288 284 284 286 288 285 274 255 254 253 208 197 199 194 191 188 188 188 185 182 177 175 174 176 180 183 185 184 183 184 185 181 175
301 301 301 300 298 298 296 291 287 286 283 280 279 280 279 280 277 274 278 257 228 218 206 200 197 194 192 189 189 187 183 179 176 175 177 180 183 183 181 180 182 179 173 173
298 297 293 291 291 293 294 291 284 280 276 274 271 267 268 277 280 264 257 261 236 228 215 206 202 198 194 190 188 187 185 181 177 174 174 176 179 179 178 177 176 175 173 171
292 293 292 293 293 292 290 290 288 283 278 277 272 265 255 248 256 270 270 254 243 237 223 212 206 201 194 191 188 187 186 183 177 172 172 174 177 178 177 175 175 174 174 174
291 292 290 285 284 286 287 288 288 284 280 281 280 274 264 253 251 259 263 251 236 237 224 206 201 202 194 190 188 186 185 183 178 174 173 173 175 175 175 175 171 174 173 173
287 287 288 288 283 279 279 282 284 284 280 277 280 279 269 259 254 255 254 250 239 236 223 202 195 195 191 187 185 184 186 184 178 173 172 172 174 176 176 172 173 172 170 169
Height
1544 1540 1539 1540 1538 1540 1541 1536 1533 1517 1507 1492 1489 1489 1488 1488 1488 1488 1487 1487 1486 1486 1486 1487 1489 1491 1494 1496 1498 1499 1500 1500 1500 1499 1497 1495 1493 1490 1487 1483 1479 1475 1471 1467
1544 1536 1535 1537 1531 1529 1528 1525 1518 1510 1500 1482 1486 1485 1483 1484 1484 1483 1482 1481 1480 1479 1479 1480 1481 1483 1487 1489 1492 1493 1494 1495 1495 1494 1493 1491 1489 1486 1482 1479 1475 1472 1468 1463
1549 1535 1537 1536 1517 1515 1514 1506 1507 1506 1492 1482 1483 1481 1481 1480 1479 1478 1476 1474 1473 1471 1471 1472 1473 1476 1479 1483 1486 1487 1489 1490 1490 1489 1488 1486 1484 1482 1478 1475 1471 1467 1464 1460
1547 1538 1545 1512 1498 1498 1499 1494 1493 1490 1484 1482 1480 1479 1477 1475 1474 1471 1469 1468 1466 1465 1464 1465 1467 1470 1474 1477 1479 1481 1483 1484 1484 1484 1483 1482 1480 1477 1475 1471 1467 1463 1460 1456
1546 1546 1529 1507 1494 1495 1496 1492 1483 1482 1479 1477 1476 1476 1471 1469 1467 1465 1464 1462 1460 1458 1458 1459 1460 1463 1467 1470 1472 1475 1476 1478 1479 1479 1478 1477 1475 1473 1470 1467 1463 1460 1456 1452
1545 1547 1535 1504 1493 1492 1495 1495 1472 1472 1472 1471 1473 1478 1468 1463 1461 1459 1458 1455 1453 1452 1451 1451 1453 1456 1459 1462 1465 1467 1470 1472 1473 1473 1473 1472 1471 1469 1467 1464 1460 1456 1453 1449
1542 1538 1517 1492 1491 1493 1500 1486 1468 1465 1465 1466 1467 1465 1460 1458 1456 1454 1451 1449 1447 1445 1444 1444 1446 1448 1451 1454 1457 1461 1464 1466 1467 1468 1468 1467 1466 1465 1463 1460 1457 1453 1449 1446
1530 1531 1514 1483 1488 1488 1476 1467 1465 1463 1462 1461 1459 1457 1455 1452 1449 1447 1444 1442 1439 1437 1436 1437 1438 1441 1443 1446 1450 1454 1457 1459 1461 1462 1462 1462 1462 1461 1459 1457 1454 1450 1446 1442
1501 1491 1477 1474 1472 1467 1466 1464 1461 1459 1457 1456 1454 1451 1449 1446 1443 1440 1437 1434 1432 1430 1430 1430 1430 1433 1435 1439 1443 1447 1450 1452 1455 1456 1457 1457 1457 1457 1455 1453 1450 1447 1443 1439
1484 1474 1471 1469 1467 1465 1464 1460 1455 1453 1451 1449 1447 1444 1441 1439 1436 1433 1429 1427 1425 1423 1422 1421 1421 1424 1428 1433 1436 1439 1442 1446 1448 1450 1451 1452 1452 1452 1451 1450 1447 1445 1441 1437
1476 1468 1467 1462 1460 1459 1456 1453 1449 1446 1444 1442 1440 1437 1434 1431 1428 1425 1422 1419 1417 1414 1412 1411 1413 1415 1420 1424 1428 1431 1435 1438 1441 1444 1445 1446 1447 1448 1447 1446 1444 1442 1438 1434
1465 1462 1462 1455 1454 1454 1451 1447 1444 1441 1436 1434 1434 1430 1427 1423 1420 1417 1414 1411 1408 1405 1403 1403 1404 1407 1411 1414 1419 1423 1427 1430 1433 1437 1439 1441 1442 1443 1443 1443 1441 1439 1436 1433
1458 1456 1454 1448 1445 1445 1443 1439 1436 1434 1430 1427 1425 1423 1419 1415 1412 1409 1406 1402 1399 1396 1395 1395 1396 1398 1402 1406 1411 1415 1419 1423 1426 1430 1432 1435 1437 1438 1439 1439 1438 1436 1434 1431
1452 1449 1443 1439 1437 1435 1434 1431 1428 1424 1422 1420 1417 1414 1410 1406 1402 1399 1396 1393 1390 1388 1387 1387 1387 1389 1394 1399 1403 1408 1412 1416 1420 1423 1426 1429 1431 1433 1434 1435 1435 1433 1432 1429
1441 1440 1434 1430 1428 1426 1425 1423 1419 1415 1413 1411 1408 1405 1401 1396 1392 1389 1386 1383 1380 1378 1377 1377 1377 1379 1385 1390 1396 1401 1405 1409 1413 1417 1420 1423 1426 1428 1429 1430 1431 1430 1429 1427
1431 1429 1427 1424 1421 1420 1418 1415 1412 1409 1406 1403 1399 1396 1392 1387 1382 1379 1376 1373 1371 1368 1367 1367 1367 1370 1375 1381 1387 1392 1398 1403 1408 1412 1415 1418 1420 1423 1425 1426 1427 1427 1426 1425
1424 1421 1419 1418 1416 1414 1413 1411 1408 1404 1400 1396 1392 1387 1383 1378 1373 1369 1366 1364 1362 1360 1358 1357 1359 1362 1365 1370 1377 1382 1389 1395 1401 1406 1409 1412 1415 1418 1420 1422 1423 1423 1423 1422
1419 1418 1416 1415 1412 1410 1408 1406 1403 1399 1395 1390 1385 1380 1375 1370 1365 1361 1358 1355 1352 1349 1347 1348 1350 1353 1356 1360 1366 1373 1379 1386 1392 1398 1403 1407 1410 1413 1416 1418 1419 1420 1420 1419
1414 1414 1413 1411 1409 1407 1404 1401 1397 1393 1388 1383 1378 1372 1368 1363 1358 1354 1350 1346 1342 1339 1338 1340 1342 1344 1346 1351 1359 1364 1370 1377 1384 1391 1397 1401 1405 1408 1411 1413 1415 1416 1416 1416
1412 1411 1409 1407 1404 1402 1398 1394 1390 1385 1381 1376 1370 1364 1359 1355 1351 1346 1341 1337 1333 1331 1331 1332 1333 1334 1337 1342 1349 1355 1362 1368 1375 1382 1389 1394 1398 1402 1405 1408 1411 1412 1413 1413
1409 1406 1404 1401 1397 1394 1391 1386 1381 1375 1371 1367 1362 1356 1350 1346 1342 1337 1332 1327 1324 1323 1322 1322 1323 1325 1328 1334 1341 1346 1353 1359 1366 1373 1380 1386 1391 1395 1399 1403 1405 1407 1409 1410
1405 1402 1398 1394 1390 1384 1381 1376 1371 1365 1360 1356 1352 1347 1342 1337 1332 1328 1323 1319 1316 1314 1313 1313 1313 1316 1319 1325 1331 1336 1343 1351 1357 1365 1372 1378 1384 1388 1392 1396 1400 1402 1404 1406
1399 1395 1391 1386 1380 1374 1368 1364 1360 1355 1350 1346 1342 1338 1334 1329 1324 1319 1314 1311 1308 1305 1303 1303 1305 1308 1312 1317 1321 1328 1334 1341 1348 1356 1364 1370 1376 1381 1386 1390 1394 1397 1399 1401
1391 1386 1381 1376 1370 1363 1356 1351 1348 1345 1340 1336 1332 1329 1325 1320 1315 1312 1307 1303 1299 1297 1295 1295 1298 1301 1305 1308 1312 1319 1326 1333 1340 1348 1356 1363 1369 1374 1379 1384 1388 1392 1394 1397
1381 1376 1370 1365 1360 1353 1347 1342 1337 1333 1330 1326 1322 1319 1316 1312 1307 1303 1299 1295 1292 1290 1288 1288 1290 1294 1298 1301 1305 1310 1317 1324 1332 1340 1348 1355 1361 1367 1372 1377 1382 1386 1389 1392
1371 1366 1360 1356 1351 1345 1339 1334 1329 1324 1320 1316 1312 1310 1307 1303 1299 1295 1291 1287 1284 1282 1281 1281 1283 1287 1290 1294 1299 1304 1311 1319 1327 1334 1341 1348 1354 1359 1365 1370 1376 1380 1384 1387
1360 1355 1350 1344 1339 1335 1331 1326 1320 1315 1311 1308 1303 1300 1298 1294 1290 1286 1283 1279 1276 1274 1273 1274 1276 1280 1284 1288 1293 1299 1305 1312 1320 1328 1335 1341 1347 1353 1358 1364 1369 1374 1378 1382